Location: ?
(35.3436°N, 139.3168°E)
Time: 10:22:47
(UTC+00:00)

X-37B - Pass Details

Date: 12 May 2021
Orbit: 386 x 389 km, 45.0° (Epoch: 10 June)

Event Time Altitude Azimuth Distance (km) Brightness Sun altitude
Rises 11:21:59 0° 306° (NW) 2,272 6.1 -18.9°
Reaches altitude 10° 11:24:11 10° 316° (NW) 1,415 4.7 -19.2°
Maximum altitude 11:27:07 33° 23° (NNE) 669 1.9 -19.7°
Enters shadow 11:27:25 33° 36° (NE) 681 1.8 -19.7°
